Starlink 31889

operational
NORAD ID: 59847 Int'l Des: 2024-097 Owner: SPXS Country: US Constellation: starlink
LEOCIRCULAR

Über Starlink 31889

Beschreibung wird geladen...

Live-Position

3D-Globus wird geladen...

Nächste Überflüge

Höhenverlauf

Altitude vs Time

uPlot chart will show altitude changes over time

Zweizeiliger Elementsatz

1 59847U 24097N 26035.15786524 -.00000082 00000-0 65413-5 0 9994
2 59847 42.9955 104.1488 0001075 174.1365 185.9499 15.27577707 96788
Epoch: 4. Feb. 2026 • Age: 5 hours

Aktueller Status

Höhe 484.7 km
Geschwindigkeit 7.63 km/s
Subsatellitenpunkt 34.22°N, 116.11°W
Startdatum 23. Mai 2024
Alter 1.7 years
Typ internet

Technische Details

Klassifizierung Payload
Masse 730.00 kg
Trockenmasse 700.00 kg
Gesamtmasse 730.00 kg
Länge 0.30 m
Durchmesser 4.10 m
Spannweite 29.00 m
Form Box + pan
Hersteller SPXS
Bus-Typ Starlink V2M
Phasenstatus In Orbit
Besitzer/Staat SPXS/US

Große Konstellationen

Loading constellations...